CSN8353 ZGSZ-WIII

Flight info

Callsign CSN8353
Flight time 4h 28m
Altitude 30000
Route SIERA2 SIERA DCT ROCCA DCT ALLEY V32 EPDOS L642 EPKAL/K0878F310 L642 EGEMU/K0876F320 L642 CN/K0872F330 L644 DUDIS/N0471F330 L644 TPN W38W AMBOY/N0468F340
Aircraft A321/M-SDE3FGHIRWY/LB1

Departure

Time 2026-04-28 04:59
Airport Shenzhen Bao'an International Airport (ZGSZ)

Arrival

Time 2026-04-28 09:27
Airport Soekarno-Hatta International Airport (WIII)
Time Latitude Longitude Altitude Speed Heading
2026-04-28 04:23 22.63272 113.80294 16 ft 0 kts 153°
2026-04-28 04:46 22.63293 113.80284 17 ft 4 kts 163°
2026-04-28 04:46 22.63319 113.80280 17 ft 4 kts 188°
2026-04-28 04:47 22.63341 113.80289 16 ft 3 kts 238°
2026-04-28 04:47 22.63343 113.80293 17 ft 0 kts 243°
2026-04-28 04:50 22.63338 113.80282 18 ft 4 kts 244°
2026-04-28 04:50 22.63305 113.80207 15 ft 14 kts 243°
2026-04-28 04:50 22.63263 113.80118 15 ft 13 kts 243°
2026-04-28 04:50 22.63223 113.80031 15 ft 11 kts 243°
2026-04-28 04:51 22.63198 113.79960 15 ft 9 kts 274°
2026-04-28 04:51 22.63243 113.79916 15 ft 12 kts 331°
2026-04-28 04:51 22.63336 113.79865 15 ft 15 kts 333°
2026-04-28 04:51 22.63424 113.79816 15 ft 14 kts 333°
2026-04-28 04:52 22.63532 113.79756 15 ft 19 kts 333°
2026-04-28 04:52 22.63646 113.79695 15 ft 17 kts 334°
2026-04-28 04:52 22.63748 113.79639 15 ft 15 kts 333°
2026-04-28 04:52 22.63842 113.79587 15 ft 18 kts 333°
2026-04-28 04:53 22.63963 113.79520 15 ft 19 kts 333°
2026-04-28 04:53 22.64090 113.79450 15 ft 23 kts 333°
2026-04-28 04:53 22.64230 113.79373 15 ft 22 kts 333°
2026-04-28 04:53 22.64359 113.79302 15 ft 20 kts 333°
2026-04-28 04:54 22.64477 113.79238 15 ft 18 kts 333°
2026-04-28 04:54 22.64583 113.79179 15 ft 16 kts 333°
2026-04-28 04:54 22.64685 113.79123 15 ft 18 kts 333°
2026-04-28 04:54 22.64818 113.79050 15 ft 26 kts 333°
2026-04-28 04:55 22.64977 113.78963 15 ft 25 kts 333°
2026-04-28 04:55 22.65126 113.78881 15 ft 23 kts 333°
2026-04-28 04:55 22.65264 113.78806 15 ft 21 kts 333°
2026-04-28 04:55 22.65390 113.78736 15 ft 19 kts 333°
2026-04-28 04:56 22.65460 113.78697 15 ft 6 kts 333°
2026-04-28 04:56 22.65486 113.78675 15 ft 4 kts 303°
2026-04-28 04:56 22.65490 113.78651 15 ft 5 kts 268°
2026-04-28 04:56 22.65480 113.78622 15 ft 3 kts 247°
2026-04-28 04:57 22.65475 113.78609 17 ft 0 kts 245°
2026-04-28 04:57 22.65465 113.78588 15 ft 12 kts 243°
2026-04-28 04:57 22.65397 113.78520 15 ft 12 kts 167°
2026-04-28 04:58 22.65342 113.78546 15 ft 0 kts 153°
2026-04-28 04:58 22.65341 113.78547 15 ft 2 kts 153°
2026-04-28 04:58 22.65183 113.78634 16 ft 59 kts 153°
2026-04-28 04:58 22.64634 113.78935 16 ft 118 kts 153°
2026-04-28 04:59 22.63760 113.79421 16 ft 163 kts 152°
2026-04-28 04:59 22.62672 113.80004 359 ft 172 kts 155°
2026-04-28 04:59 22.61566 113.80400 954 ft 172 kts 184°
2026-04-28 04:59 22.60428 113.80103 1515 ft 167 kts 198°
2026-04-28 05:00 22.59305 113.79627 1698 ft 181 kts 199°
2026-04-28 05:00 22.58081 113.79105 1848 ft 198 kts 199°
2026-04-28 05:00 22.56735 113.78564 1997 ft 215 kts 198°
2026-04-28 05:00 22.55250 113.78004 2317 ft 234 kts 197°
2026-04-28 05:01 22.53731 113.77460 3033 ft 233 kts 196°
2026-04-28 05:01 22.52179 113.76930 3833 ft 233 kts 196°
2026-04-28 05:01 22.50622 113.76416 4565 ft 234 kts 196°
2026-04-28 05:01 22.49124 113.75730 5092 ft 237 kts 217°
2026-04-28 05:02 22.48100 113.74340 5584 ft 243 kts 247°
2026-04-28 05:02 22.47802 113.72522 6083 ft 249 kts 262°
2026-04-28 05:02 22.47671 113.70649 6630 ft 250 kts 263°
2026-04-28 05:02 22.47544 113.68774 7168 ft 251 kts 263°
2026-04-28 05:03 22.47415 113.66911 7668 ft 252 kts 263°
2026-04-28 05:03 22.47283 113.65016 8177 ft 254 kts 263°
2026-04-28 05:03 22.47147 113.63111 8776 ft 254 kts 263°
2026-04-28 05:03 22.47006 113.61197 9266 ft 256 kts 262°
2026-04-28 05:04 22.46572 113.59342 9765 ft 256 kts 244°
2026-04-28 05:04 22.45607 113.57738 10179 ft 257 kts 226°
2026-04-28 05:04 22.44255 113.56418 10389 ft 270 kts 221°
2026-04-28 05:04 22.42788 113.55064 10513 ft 285 kts 221°
2026-04-28 05:05 22.41240 113.53642 10638 ft 300 kts 221°
2026-04-28 05:05 22.39609 113.52143 10762 ft 315 kts 221°
2026-04-28 05:05 22.37801 113.50773 10880 ft 330 kts 208°
2026-04-28 05:05 22.35585 113.49929 10996 ft 346 kts 195°
2026-04-28 05:06 22.33193 113.49341 11117 ft 359 kts 194°
2026-04-28 05:06 22.30711 113.48738 11233 ft 372 kts 194°
2026-04-28 05:06 22.28144 113.48117 11405 ft 382 kts 194°
2026-04-28 05:06 22.25528 113.47496 11735 ft 387 kts 192°
2026-04-28 05:07 22.22831 113.47236 12102 ft 393 kts 181°
2026-04-28 05:07 22.20090 113.47549 12485 ft 399 kts 170°
2026-04-28 05:07 22.17450 113.48393 12870 ft 403 kts 163°
2026-04-28 05:07 22.14787 113.49375 13250 ft 406 kts 163°
2026-04-28 05:08 22.12107 113.50359 13642 ft 408 kts 164°
2026-04-28 05:08 22.09412 113.51346 13970 ft 410 kts 164°
2026-04-28 05:08 22.06700 113.52339 14287 ft 413 kts 164°
2026-04-28 05:08 22.03974 113.53337 14604 ft 415 kts 164°
2026-04-28 05:09 22.01235 113.54339 14918 ft 417 kts 164°
2026-04-28 05:09 21.98450 113.55184 15220 ft 416 kts 172°
2026-04-28 05:09 21.95578 113.55527 15520 ft 415 kts 180°
2026-04-28 05:09 21.92726 113.55689 15823 ft 417 kts 180°
2026-04-28 05:10 21.89818 113.55858 16123 ft 419 kts 179°
2026-04-28 05:10 21.86898 113.56031 16417 ft 422 kts 179°
2026-04-28 05:10 21.83961 113.56210 16704 ft 424 kts 179°
2026-04-28 05:10 21.81009 113.56392 16996 ft 426 kts 179°
2026-04-28 05:11 21.78045 113.56576 17285 ft 428 kts 179°
2026-04-28 05:11 21.75066 113.56761 17577 ft 430 kts 179°
2026-04-28 05:11 21.72077 113.56946 17861 ft 432 kts 179°
2026-04-28 05:11 21.69074 113.57130 18142 ft 434 kts 179°
2026-04-28 05:12 21.66096 113.57310 18389 ft 435 kts 179°
2026-04-28 05:12 21.63062 113.57493 18607 ft 438 kts 180°
2026-04-28 05:12 21.60017 113.57678 18852 ft 440 kts 180°
2026-04-28 05:12 21.56957 113.57862 19101 ft 441 kts 180°
2026-04-28 05:13 21.53895 113.58237 19344 ft 446 kts 171°
2026-04-28 05:13 21.50900 113.59156 19584 ft 451 kts 162°
2026-04-28 05:13 21.48008 113.60482 19820 ft 454 kts 159°
2026-04-28 05:13 21.45103 113.61834 20056 ft 455 kts 160°
2026-04-28 05:14 21.42230 113.63163 20283 ft 457 kts 160°
2026-04-28 05:14 21.39308 113.64507 20511 ft 458 kts 160°
2026-04-28 05:14 21.36375 113.65854 20735 ft 460 kts 160°
2026-04-28 05:14 21.33429 113.67206 20943 ft 461 kts 160°
2026-04-28 05:15 21.30469 113.68567 21136 ft 464 kts 160°
2026-04-28 05:15 21.27504 113.69935 21348 ft 465 kts 160°
2026-04-28 05:15 21.24524 113.71309 21571 ft 467 kts 160°
2026-04-28 05:15 21.21539 113.72683 21783 ft 468 kts 160°
2026-04-28 05:16 21.18538 113.74062 21997 ft 469 kts 160°
2026-04-28 05:16 21.15568 113.75422 22204 ft 471 kts 161°
2026-04-28 05:16 21.12547 113.76766 22399 ft 471 kts 164°
2026-04-28 05:17 21.06197 113.78094 22778 ft 463 kts 182°
2026-04-28 05:17 21.02994 113.77964 22964 ft 459 kts 190°
2026-04-28 05:17 20.99807 113.77605 23151 ft 460 kts 190°
2026-04-28 05:17 20.96616 113.77247 23339 ft 462 kts 190°
2026-04-28 05:18 20.93419 113.76892 23512 ft 463 kts 190°
2026-04-28 05:18 20.90257 113.76543 23670 ft 464 kts 190°
2026-04-28 05:18 20.87044 113.76187 23823 ft 465 kts 190°
2026-04-28 05:18 20.83827 113.75828 23982 ft 466 kts 190°
2026-04-28 05:19 20.80602 113.75466 24138 ft 467 kts 190°
2026-04-28 05:19 20.77365 113.75102 24293 ft 468 kts 190°
2026-04-28 05:19 20.74125 113.74734 24482 ft 468 kts 190°
2026-04-28 05:19 20.70893 113.74367 24698 ft 467 kts 190°
2026-04-28 05:20 20.67703 113.74009 24911 ft 467 kts 190°
2026-04-28 05:20 20.64471 113.73650 25135 ft 467 kts 190°
2026-04-28 05:20 20.61242 113.73293 25344 ft 466 kts 190°
2026-04-28 05:20 20.58013 113.72936 25572 ft 466 kts 190°
2026-04-28 05:21 20.54795 113.72578 25788 ft 465 kts 190°
2026-04-28 05:21 20.51572 113.72219 26007 ft 465 kts 190°
2026-04-28 05:21 20.48357 113.71862 26219 ft 465 kts 190°
2026-04-28 05:21 20.45145 113.71503 26438 ft 464 kts 190°
2026-04-28 05:22 20.41973 113.71147 26651 ft 464 kts 190°
2026-04-28 05:22 20.38723 113.70785 26872 ft 463 kts 190°
2026-04-28 05:22 20.35560 113.70434 27086 ft 463 kts 190°
2026-04-28 05:22 20.32363 113.70080 27304 ft 462 kts 190°
2026-04-28 05:23 20.29164 113.69726 27530 ft 462 kts 190°
2026-04-28 05:23 20.25963 113.69373 27736 ft 462 kts 190°
2026-04-28 05:23 20.22769 113.69021 27952 ft 461 kts 190°
2026-04-28 05:23 20.19576 113.68667 28164 ft 461 kts 190°
2026-04-28 05:24 20.16391 113.68314 28364 ft 460 kts 190°
2026-04-28 05:24 20.13247 113.67966 28588 ft 460 kts 190°
2026-04-28 05:24 20.10064 113.67609 28755 ft 460 kts 191°
2026-04-28 05:24 20.06878 113.67250 28941 ft 460 kts 191°
2026-04-28 05:25 20.03693 113.66895 29133 ft 460 kts 191°
2026-04-28 05:25 20.00508 113.66543 29326 ft 460 kts 191°
2026-04-28 05:25 19.97328 113.66197 29522 ft 460 kts 190°
2026-04-28 05:25 19.94146 113.65850 29714 ft 460 kts 191°
2026-04-28 05:26 19.90964 113.65501 29873 ft 460 kts 191°
2026-04-28 05:26 19.87777 113.65149 29904 ft 461 kts 191°
2026-04-28 05:26 19.81430 113.64441 29887 ft 461 kts 191°
2026-04-28 05:27 19.75036 113.63735 29900 ft 462 kts 191°
2026-04-28 05:27 19.68639 113.63032 29901 ft 462 kts 191°
2026-04-28 05:28 19.62281 113.62330 29900 ft 462 kts 191°
2026-04-28 05:28 19.55894 113.61625 29898 ft 462 kts 191°
2026-04-28 05:29 19.49498 113.60917 29875 ft 462 kts 191°
2026-04-28 05:29 19.43097 113.60213 29878 ft 463 kts 191°
2026-04-28 05:30 19.36682 113.59508 29884 ft 464 kts 191°
2026-04-28 05:30 19.30305 113.58809 29891 ft 464 kts 191°
2026-04-28 05:31 19.23878 113.58107 29894 ft 464 kts 191°
2026-04-28 05:31 19.17448 113.57412 29870 ft 465 kts 191°
2026-04-28 05:32 19.11010 113.56708 29875 ft 466 kts 191°
2026-04-28 05:32 19.04598 113.56007 29893 ft 466 kts 191°
2026-04-28 05:33 18.98148 113.55289 29897 ft 466 kts 192°
2026-04-28 05:33 18.91734 113.54404 29891 ft 464 kts 193°
2026-04-28 05:34 18.85341 113.53424 29874 ft 464 kts 193°
2026-04-28 05:34 18.78934 113.52467 29872 ft 465 kts 192°
2026-04-28 05:35 18.72563 113.51560 29878 ft 465 kts 192°
2026-04-28 05:35 18.66148 113.50664 29878 ft 465 kts 192°
2026-04-28 05:36 18.59736 113.49730 29882 ft 463 kts 196°
2026-04-28 05:36 18.53813 113.47501 29862 ft 452 kts 213°
2026-04-28 05:37 18.48677 113.43752 29859 ft 449 kts 220°
2026-04-28 05:37 18.43631 113.39861 29875 ft 450 kts 220°
2026-04-28 05:38 18.38566 113.35977 29874 ft 450 kts 220°
2026-04-28 05:38 18.33538 113.32115 29888 ft 450 kts 220°
2026-04-28 05:39 18.28480 113.28223 29868 ft 451 kts 220°
2026-04-28 05:39 18.23413 113.24319 29867 ft 452 kts 220°
2026-04-28 05:40 18.18335 113.20409 29880 ft 453 kts 220°
2026-04-28 05:40 18.13272 113.16526 29883 ft 454 kts 219°
2026-04-28 05:41 18.08173 113.12618 29882 ft 454 kts 220°
2026-04-28 05:41 18.03075 113.08698 29897 ft 454 kts 220°
2026-04-28 05:42 17.97975 113.04787 29876 ft 454 kts 219°
2026-04-28 05:42 17.92863 113.00872 29876 ft 455 kts 219°
2026-04-28 05:43 17.87769 112.96979 29885 ft 456 kts 219°
2026-04-28 05:43 17.82648 112.93045 29888 ft 456 kts 220°
2026-04-28 05:44 17.77577 112.89046 29890 ft 456 kts 220°
2026-04-28 05:44 17.72512 112.85029 29896 ft 457 kts 220°
2026-04-28 05:45 17.67426 112.81026 29886 ft 457 kts 220°
2026-04-28 05:45 17.62367 112.77050 29888 ft 458 kts 220°
2026-04-28 05:46 17.57258 112.73052 29893 ft 458 kts 220°
2026-04-28 05:46 17.52145 112.69053 29894 ft 459 kts 220°
2026-04-28 05:47 17.47073 112.65073 29900 ft 459 kts 220°
2026-04-28 05:47 17.41964 112.61070 29901 ft 459 kts 220°
2026-04-28 05:48 17.36846 112.57081 29896 ft 459 kts 220°
2026-04-28 05:48 17.31737 112.53082 29900 ft 459 kts 220°
2026-04-28 05:49 17.26624 112.49087 29896 ft 459 kts 220°
2026-04-28 05:49 17.21544 112.45123 29899 ft 459 kts 220°
2026-04-28 05:50 17.16431 112.41135 29894 ft 459 kts 220°
2026-04-28 05:50 17.11308 112.37144 29883 ft 459 kts 219°
2026-04-28 05:51 17.06194 112.33158 29892 ft 459 kts 219°
2026-04-28 05:51 17.01113 112.29200 29891 ft 458 kts 219°
2026-04-28 05:52 16.95983 112.25244 29888 ft 458 kts 218°
2026-04-28 05:52 16.90819 112.21342 29888 ft 458 kts 218°
2026-04-28 05:53 16.85651 112.17443 29890 ft 458 kts 218°
2026-04-28 05:53 16.80529 112.13565 29878 ft 458 kts 218°
2026-04-28 05:54 16.75369 112.09660 29883 ft 458 kts 218°
2026-04-28 05:54 16.70204 112.05758 29883 ft 458 kts 218°
2026-04-28 05:55 16.65041 112.01859 29879 ft 458 kts 218°
2026-04-28 05:55 16.59920 111.97984 29879 ft 458 kts 218°
2026-04-28 05:56 16.54766 111.94083 29878 ft 458 kts 218°
2026-04-28 05:56 16.49601 111.90197 29865 ft 458 kts 217°
2026-04-28 05:57 16.44436 111.86309 29867 ft 458 kts 217°
2026-04-28 05:57 16.39306 111.82440 29868 ft 458 kts 217°
2026-04-28 05:58 16.34141 111.78553 29875 ft 458 kts 217°
2026-04-28 05:58 16.28970 111.74665 29874 ft 458 kts 217°
2026-04-28 05:59 16.23804 111.70774 29873 ft 458 kts 217°
2026-04-28 05:59 16.18683 111.66916 29869 ft 458 kts 217°
2026-04-28 06:00 16.13521 111.63037 29873 ft 457 kts 217°
2026-04-28 06:00 16.08355 111.59171 29875 ft 457 kts 217°
2026-04-28 06:01 16.03192 111.55304 29868 ft 457 kts 217°
2026-04-28 06:01 15.98067 111.51464 29870 ft 457 kts 217°
2026-04-28 06:02 15.92906 111.47593 29870 ft 457 kts 217°
2026-04-28 06:02 15.87747 111.43725 29862 ft 458 kts 217°
2026-04-28 06:03 15.82575 111.39858 29863 ft 458 kts 217°
2026-04-28 06:03 15.77437 111.36014 29865 ft 458 kts 217°
2026-04-28 06:04 15.72260 111.32145 29867 ft 459 kts 217°
2026-04-28 06:04 15.67083 111.28279 29870 ft 459 kts 217°
2026-04-28 06:05 15.61904 111.24409 29860 ft 458 kts 217°
2026-04-28 06:05 15.56724 111.20550 29861 ft 459 kts 217°
2026-04-28 06:06 15.51573 111.16710 29868 ft 459 kts 217°
2026-04-28 06:06 15.46388 111.12845 29868 ft 459 kts 217°
2026-04-28 06:07 15.41199 111.08987 29875 ft 459 kts 217°
2026-04-28 06:07 15.36047 111.05160 29875 ft 458 kts 217°
2026-04-28 06:08 15.30891 111.01283 29868 ft 458 kts 218°
2026-04-28 06:08 15.25766 110.97369 29865 ft 458 kts 218°
2026-04-28 06:09 15.20637 110.93457 29866 ft 457 kts 218°
2026-04-28 06:09 15.15516 110.89555 29858 ft 457 kts 218°
2026-04-28 06:10 15.10413 110.85694 29858 ft 457 kts 217°
2026-04-28 06:10 15.05278 110.81806 29857 ft 457 kts 218°
2026-04-28 06:11 15.00152 110.77914 29860 ft 457 kts 218°
2026-04-28 06:11 14.95023 110.74035 29861 ft 457 kts 218°
2026-04-28 06:12 14.89888 110.70158 29859 ft 457 kts 218°
2026-04-28 06:12 14.84790 110.66300 29863 ft 457 kts 218°
2026-04-28 06:13 14.79660 110.62420 29860 ft 457 kts 218°
2026-04-28 06:13 14.74517 110.58540 29860 ft 457 kts 218°
2026-04-28 06:14 14.69384 110.54657 29863 ft 458 kts 218°
2026-04-28 06:14 14.64274 110.50799 29852 ft 458 kts 217°
2026-04-28 06:15 14.59131 110.46920 29863 ft 458 kts 218°
2026-04-28 06:15 14.53984 110.43041 29862 ft 458 kts 218°
2026-04-28 06:16 14.48838 110.39167 29861 ft 458 kts 218°
2026-04-28 06:16 14.43727 110.35322 29863 ft 458 kts 218°
2026-04-28 06:17 14.38585 110.31453 29863 ft 458 kts 218°
2026-04-28 06:18 14.30867 110.25653 29856 ft 457 kts 218°
2026-04-28 06:18 14.25725 110.21797 29861 ft 457 kts 218°
2026-04-28 06:19 14.20613 110.17954 29859 ft 457 kts 218°
2026-04-28 06:19 14.15476 110.14091 29859 ft 457 kts 218°
2026-04-28 06:20 14.10332 110.10231 29857 ft 457 kts 218°
2026-04-28 06:20 14.05186 110.06375 29846 ft 457 kts 217°
2026-04-28 06:21 14.00075 110.02549 29847 ft 458 kts 217°
2026-04-28 06:21 13.94892 109.98734 29848 ft 458 kts 215°
2026-04-28 06:22 13.89499 109.95214 29855 ft 459 kts 213°
2026-04-28 06:22 13.84025 109.91829 29852 ft 459 kts 213°
2026-04-28 06:23 13.78611 109.88419 29861 ft 459 kts 213°
2026-04-28 06:23 13.73193 109.84922 29854 ft 460 kts 213°
2026-04-28 06:24 13.67775 109.81415 29845 ft 460 kts 213°
2026-04-28 06:24 13.62341 109.77925 29856 ft 461 kts 213°
2026-04-28 06:25 13.56944 109.74465 29867 ft 460 kts 213°
2026-04-28 06:25 13.51509 109.70981 29860 ft 460 kts 213°
2026-04-28 06:26 13.46080 109.67494 29862 ft 460 kts 213°
2026-04-28 06:26 13.40650 109.64015 29855 ft 460 kts 213°
2026-04-28 06:27 13.35243 109.60558 29832 ft 461 kts 213°
2026-04-28 06:27 13.29794 109.57075 29835 ft 462 kts 213°
2026-04-28 06:28 13.24345 109.53589 29843 ft 462 kts 213°
2026-04-28 06:28 13.18890 109.50097 29854 ft 462 kts 213°
2026-04-28 06:29 13.13468 109.46632 29855 ft 462 kts 213°
2026-04-28 06:29 13.08009 109.43144 29848 ft 462 kts 213°
2026-04-28 06:30 13.02547 109.39663 29850 ft 463 kts 213°
2026-04-28 06:30 12.97082 109.36176 29853 ft 463 kts 213°
2026-04-28 06:31 12.91621 109.32686 29856 ft 463 kts 213°
2026-04-28 06:31 12.86191 109.29221 29855 ft 463 kts 213°
2026-04-28 06:32 12.80727 109.25742 29849 ft 463 kts 213°
2026-04-28 06:32 12.75253 109.22257 29855 ft 463 kts 213°
2026-04-28 06:33 12.69780 109.18778 29862 ft 463 kts 213°
2026-04-28 06:33 12.64338 109.15322 29866 ft 463 kts 213°
2026-04-28 06:34 12.58861 109.11853 29873 ft 463 kts 213°
2026-04-28 06:34 12.53377 109.08377 29869 ft 463 kts 213°
2026-04-28 06:35 12.47904 109.04894 29869 ft 464 kts 213°
2026-04-28 06:35 12.42455 109.01433 29867 ft 464 kts 213°
2026-04-28 06:36 12.36959 108.97950 29887 ft 465 kts 213°
2026-04-28 06:36 12.31457 108.94464 29886 ft 465 kts 213°
2026-04-28 06:37 12.25953 108.90981 29889 ft 465 kts 213°
2026-04-28 06:37 12.20484 108.87523 29889 ft 465 kts 213°
2026-04-28 06:38 12.14983 108.84039 29912 ft 465 kts 213°
2026-04-28 06:38 12.09475 108.80561 29901 ft 466 kts 213°
2026-04-28 06:39 12.03960 108.77086 29899 ft 466 kts 213°
2026-04-28 06:39 11.98441 108.73597 29897 ft 467 kts 212°
2026-04-28 06:40 11.92963 108.70129 29912 ft 467 kts 212°
2026-04-28 06:40 11.87435 108.66641 29914 ft 467 kts 212°
2026-04-28 06:41 11.81901 108.63156 29910 ft 467 kts 213°
2026-04-28 06:41 11.76361 108.59669 29895 ft 468 kts 213°
2026-04-28 06:42 11.70851 108.56195 29879 ft 470 kts 212°
2026-04-28 06:42 11.65283 108.52685 29884 ft 471 kts 212°
2026-04-28 06:43 11.59706 108.49170 29886 ft 472 kts 212°
2026-04-28 06:43 11.54115 108.45649 29878 ft 472 kts 212°
2026-04-28 06:44 11.48522 108.42138 29883 ft 472 kts 212°
2026-04-28 06:44 11.42962 108.38650 29870 ft 472 kts 212°
2026-04-28 06:45 11.37360 108.35132 29865 ft 474 kts 212°
2026-04-28 06:45 11.31744 108.31604 29862 ft 475 kts 212°
2026-04-28 06:46 11.26120 108.28068 29852 ft 475 kts 212°
2026-04-28 06:46 11.20529 108.24561 29854 ft 475 kts 212°
2026-04-28 06:47 11.14891 108.21040 29850 ft 475 kts 212°
2026-04-28 06:47 11.09262 108.17515 29843 ft 475 kts 212°
2026-04-28 06:48 11.03675 108.14006 29837 ft 475 kts 212°
2026-04-28 06:48 10.98046 108.10483 29840 ft 475 kts 212°
2026-04-28 06:49 10.92413 108.06962 29840 ft 475 kts 212°
2026-04-28 06:49 10.86844 108.03334 29843 ft 475 kts 214°
2026-04-28 06:50 10.81327 107.99614 29842 ft 475 kts 214°
2026-04-28 06:50 10.75856 107.95924 29841 ft 475 kts 214°
2026-04-28 06:51 10.70316 107.92236 29834 ft 476 kts 213°
2026-04-28 06:51 10.64762 107.88570 29833 ft 476 kts 213°
2026-04-28 06:52 10.59209 107.84899 29834 ft 476 kts 213°
2026-04-28 06:52 10.53660 107.81220 29838 ft 477 kts 213°
2026-04-28 06:53 10.48138 107.77563 29843 ft 477 kts 213°
2026-04-28 06:53 10.42577 107.73883 29840 ft 477 kts 214°
2026-04-28 06:54 10.37010 107.70212 29841 ft 478 kts 213°
2026-04-28 06:54 10.31432 107.66537 29831 ft 478 kts 213°
2026-04-28 06:55 10.25882 107.62881 29833 ft 479 kts 214°
2026-04-28 06:55 10.20292 107.59203 29839 ft 479 kts 214°
2026-04-28 06:56 10.14701 107.55518 29842 ft 479 kts 214°
2026-04-28 06:56 10.09106 107.51828 29839 ft 479 kts 213°
2026-04-28 06:57 10.03515 107.48140 29843 ft 479 kts 213°
2026-04-28 06:57 9.97958 107.44483 29850 ft 479 kts 213°
2026-04-28 06:58 9.92366 107.40799 29848 ft 479 kts 213°
2026-04-28 06:58 9.86779 107.37120 29846 ft 479 kts 213°
2026-04-28 06:59 9.81225 107.33463 29836 ft 479 kts 213°
2026-04-28 06:59 9.75632 107.29782 29840 ft 479 kts 213°
2026-04-28 07:00 9.70036 107.26100 29841 ft 480 kts 213°
2026-04-28 07:00 9.64440 107.22413 29840 ft 480 kts 213°
2026-04-28 07:01 9.58877 107.18751 29850 ft 480 kts 213°
2026-04-28 07:01 9.53271 107.15067 29848 ft 480 kts 213°
2026-04-28 07:02 9.47667 107.11383 29850 ft 480 kts 213°
2026-04-28 07:02 9.42071 107.07702 29850 ft 480 kts 213°
2026-04-28 07:03 9.36509 107.04050 29847 ft 479 kts 213°
2026-04-28 07:03 9.30909 107.00377 29840 ft 480 kts 213°
2026-04-28 07:04 9.25302 106.96701 29832 ft 480 kts 213°
2026-04-28 07:04 9.19696 106.93021 29838 ft 481 kts 213°
2026-04-28 07:05 9.14112 106.89367 29842 ft 481 kts 213°
2026-04-28 07:05 9.08495 106.85687 29842 ft 481 kts 213°
2026-04-28 07:06 9.02875 106.82007 29842 ft 481 kts 213°
2026-04-28 07:06 8.97256 106.78337 29840 ft 481 kts 213°
2026-04-28 07:07 8.91636 106.74657 29839 ft 481 kts 213°
2026-04-28 07:07 8.86057 106.70998 29839 ft 481 kts 213°
2026-04-28 07:08 8.80437 106.67328 29841 ft 481 kts 213°
2026-04-28 07:08 8.74503 106.64270 29834 ft 480 kts 197°
2026-04-28 07:09 8.67941 106.63288 29822 ft 478 kts 177°
2026-04-28 07:09 8.61372 106.63928 29822 ft 478 kts 173°
2026-04-28 07:10 8.54756 106.64626 29826 ft 478 kts 173°
2026-04-28 07:10 8.48131 106.65315 29830 ft 479 kts 173°
2026-04-28 07:11 8.41500 106.66018 29825 ft 479 kts 173°
2026-04-28 07:11 8.34909 106.66719 29829 ft 480 kts 173°
2026-04-28 07:12 8.28276 106.67425 29835 ft 480 kts 173°
2026-04-28 07:12 8.21632 106.68124 29834 ft 480 kts 173°
2026-04-28 07:13 8.14990 106.68821 29837 ft 480 kts 173°
2026-04-28 07:13 8.08389 106.69521 29840 ft 480 kts 173°
2026-04-28 07:14 8.01747 106.70225 29844 ft 480 kts 173°
2026-04-28 07:14 7.95103 106.70928 29850 ft 480 kts 173°
2026-04-28 07:15 7.88469 106.71638 29850 ft 479 kts 173°
2026-04-28 07:15 7.81882 106.72335 29853 ft 479 kts 173°
2026-04-28 07:16 7.75255 106.73037 29852 ft 479 kts 173°
2026-04-28 07:16 7.68629 106.73747 29849 ft 479 kts 173°
2026-04-28 07:17 7.62006 106.74452 29849 ft 479 kts 173°
2026-04-28 07:17 7.55423 106.75145 29848 ft 479 kts 173°
2026-04-28 07:18 7.48801 106.75840 29841 ft 478 kts 173°
2026-04-28 07:18 7.42180 106.76532 29841 ft 478 kts 173°
2026-04-28 07:19 7.35563 106.77229 29839 ft 478 kts 173°
2026-04-28 07:19 7.28946 106.77930 29839 ft 478 kts 173°
2026-04-28 07:20 7.22388 106.78638 29854 ft 476 kts 173°
2026-04-28 07:20 7.15803 106.79338 29855 ft 475 kts 173°
2026-04-28 07:21 7.09223 106.80027 29858 ft 475 kts 173°
2026-04-28 07:21 7.02654 106.80701 29853 ft 475 kts 175°
2026-04-28 07:22 6.96127 106.80151 29845 ft 476 kts 191°
2026-04-28 07:22 6.92893 106.79423 29844 ft 477 kts 192°
2026-04-28 07:22 6.86420 106.77980 29850 ft 476 kts 191°
2026-04-28 07:23 6.79943 106.76556 29851 ft 476 kts 191°
2026-04-28 07:23 6.73516 106.75149 29849 ft 476 kts 192°
2026-04-28 07:24 6.67048 106.73708 29848 ft 476 kts 191°
2026-04-28 07:24 6.60589 106.72271 29845 ft 475 kts 192°
2026-04-28 07:25 6.54128 106.70856 29839 ft 475 kts 192°
2026-04-28 07:25 6.47715 106.69444 29840 ft 475 kts 191°
2026-04-28 07:26 6.41259 106.68013 29835 ft 475 kts 192°
2026-04-28 07:26 6.34805 106.66585 29833 ft 475 kts 192°
2026-04-28 07:27 6.28356 106.65164 29834 ft 475 kts 192°
2026-04-28 07:27 6.21947 106.63757 29834 ft 475 kts 191°
2026-04-28 07:28 6.15493 106.62330 29843 ft 475 kts 192°
2026-04-28 07:28 6.09044 106.60907 29848 ft 474 kts 192°
2026-04-28 07:29 6.02600 106.59489 29849 ft 474 kts 192°
2026-04-28 07:29 5.96202 106.58090 29847 ft 474 kts 192°
2026-04-28 07:30 5.89760 106.56673 29849 ft 474 kts 192°
2026-04-28 07:30 5.83327 106.55246 29848 ft 473 kts 191°
2026-04-28 07:31 5.77983 106.54069 29848 ft 473 kts 191°
2026-04-28 07:31 5.71556 106.52662 29844 ft 472 kts 192°
2026-04-28 07:32 5.64100 106.51017 29845 ft 472 kts 192°
2026-04-28 07:32 5.57691 106.49598 29841 ft 472 kts 192°
2026-04-28 07:33 5.52363 106.48426 29838 ft 472 kts 192°
2026-04-28 07:33 5.45950 106.47012 29837 ft 472 kts 191°
2026-04-28 07:34 5.38495 106.45377 29843 ft 472 kts 191°
2026-04-28 07:34 5.33165 106.44206 29843 ft 472 kts 191°
2026-04-28 07:35 5.26761 106.42796 29844 ft 471 kts 192°
2026-04-28 07:35 5.20362 106.41395 29838 ft 471 kts 191°
2026-04-28 07:36 5.13961 106.39993 29834 ft 470 kts 192°
2026-04-28 07:36 5.06533 106.38358 29827 ft 470 kts 191°
2026-04-28 07:37 5.01225 106.37185 29830 ft 470 kts 192°
2026-04-28 07:37 4.94843 106.35784 29823 ft 469 kts 191°
2026-04-28 07:38 4.88465 106.34387 29820 ft 469 kts 191°
2026-04-28 07:38 4.82087 106.32990 29815 ft 469 kts 191°
2026-04-28 07:39 4.75747 106.31598 29810 ft 469 kts 191°
2026-04-28 07:39 4.69364 106.30202 29811 ft 469 kts 191°
2026-04-28 07:40 4.62987 106.28799 29818 ft 469 kts 192°
2026-04-28 07:40 4.56606 106.27396 29813 ft 470 kts 191°
2026-04-28 07:41 4.50265 106.26002 29818 ft 470 kts 191°
2026-04-28 07:41 4.43874 106.24604 29818 ft 470 kts 191°
2026-04-28 07:42 4.37484 106.23205 29825 ft 470 kts 192°
2026-04-28 07:42 4.31076 106.21883 29828 ft 470 kts 185°
2026-04-28 07:43 4.24636 106.22071 29827 ft 467 kts 168°
2026-04-28 07:43 4.18253 106.23276 29825 ft 467 kts 168°
2026-04-28 07:44 4.11869 106.24485 29824 ft 467 kts 168°
2026-04-28 07:44 4.05493 106.25686 29822 ft 466 kts 169°
2026-04-28 07:45 3.99160 106.26871 29819 ft 466 kts 168°
2026-04-28 07:45 3.92779 106.28066 29823 ft 467 kts 168°
2026-04-28 07:46 3.86392 106.29267 29820 ft 467 kts 168°
2026-04-28 07:46 3.80006 106.30471 29825 ft 467 kts 168°
2026-04-28 07:47 3.73663 106.31662 29823 ft 467 kts 169°
2026-04-28 07:47 3.67273 106.32857 29831 ft 467 kts 168°
2026-04-28 07:48 3.60886 106.34056 29824 ft 467 kts 168°
2026-04-28 07:48 3.54492 106.35253 29823 ft 468 kts 168°
2026-04-28 07:49 3.48093 106.36453 29818 ft 468 kts 168°
2026-04-28 07:49 3.41733 106.37651 29821 ft 469 kts 168°
2026-04-28 07:50 3.35320 106.38849 29820 ft 469 kts 168°
2026-04-28 07:50 3.28915 106.40053 29819 ft 469 kts 168°
2026-04-28 07:51 3.22500 106.41259 29816 ft 469 kts 168°
2026-04-28 07:51 3.16125 106.42461 29820 ft 470 kts 168°
2026-04-28 07:52 3.09698 106.43673 29821 ft 470 kts 168°
2026-04-28 07:52 3.03275 106.44875 29822 ft 470 kts 168°
2026-04-28 07:53 2.96849 106.46080 29820 ft 470 kts 168°
2026-04-28 07:53 2.90426 106.47288 29826 ft 470 kts 168°
2026-04-28 07:54 2.84047 106.48486 29820 ft 470 kts 168°
2026-04-28 07:54 2.77629 106.49695 29815 ft 469 kts 168°
2026-04-28 07:55 2.71212 106.50906 29822 ft 469 kts 168°
2026-04-28 07:55 2.64795 106.52117 29819 ft 469 kts 168°
2026-04-28 07:56 2.58422 106.53316 29820 ft 469 kts 168°
2026-04-28 07:56 2.52005 106.54514 29822 ft 469 kts 169°
2026-04-28 07:57 2.45586 106.55717 29821 ft 469 kts 169°
2026-04-28 07:57 2.39213 106.56917 29826 ft 469 kts 169°
2026-04-28 07:58 2.32801 106.58129 29831 ft 469 kts 169°
2026-04-28 07:58 2.26393 106.59343 29827 ft 469 kts 169°
2026-04-28 07:59 2.19981 106.60548 29822 ft 468 kts 168°
2026-04-28 07:59 2.13585 106.61743 29824 ft 468 kts 169°
2026-04-28 08:00 2.07231 106.62938 29825 ft 467 kts 169°
2026-04-28 08:00 2.00844 106.64142 29822 ft 467 kts 169°
2026-04-28 08:01 1.94454 106.65337 29821 ft 467 kts 169°
2026-04-28 08:01 1.88062 106.66539 29817 ft 467 kts 169°
2026-04-28 08:02 1.81721 106.67735 29817 ft 467 kts 168°
2026-04-28 08:02 1.75340 106.68930 29817 ft 466 kts 168°
2026-04-28 08:03 1.68970 106.70123 29810 ft 466 kts 168°
2026-04-28 08:03 1.62607 106.71323 29815 ft 465 kts 168°
2026-04-28 08:04 1.56250 106.72519 29811 ft 465 kts 168°
2026-04-28 08:04 1.49940 106.73705 29807 ft 464 kts 168°
2026-04-28 08:05 1.43592 106.74897 29810 ft 464 kts 168°
2026-04-28 08:05 1.37241 106.76099 29806 ft 464 kts 168°
2026-04-28 08:06 1.30923 106.77240 29800 ft 465 kts 169°
2026-04-28 08:06 1.24557 106.78349 29806 ft 465 kts 169°
2026-04-28 08:07 1.18189 106.79466 29805 ft 465 kts 169°
2026-04-28 08:07 1.11817 106.80606 29806 ft 465 kts 169°
2026-04-28 08:08 1.05452 106.81752 29804 ft 465 kts 169°
2026-04-28 08:08 0.99131 106.82880 29806 ft 465 kts 169°
2026-04-28 08:09 0.92758 106.84006 29809 ft 465 kts 169°
2026-04-28 08:09 0.86389 106.85128 29803 ft 465 kts 169°
2026-04-28 08:10 0.80022 106.86261 29804 ft 465 kts 168°
2026-04-28 08:10 0.73690 106.87394 29807 ft 465 kts 169°
2026-04-28 08:11 0.67313 106.88537 29802 ft 466 kts 168°
2026-04-28 08:11 0.60918 106.89679 29805 ft 467 kts 169°
2026-04-28 08:12 0.54520 106.90808 29808 ft 467 kts 169°
2026-04-28 08:12 0.48153 106.91933 29806 ft 468 kts 169°
2026-04-28 08:13 0.41747 106.93074 29808 ft 468 kts 168°
2026-04-28 08:13 0.35349 106.94297 29812 ft 468 kts 167°
2026-04-28 08:14 0.28972 106.95603 29811 ft 468 kts 167°
2026-04-28 08:14 0.22600 106.96910 29812 ft 468 kts 167°
2026-04-28 08:15 0.16261 106.98179 29811 ft 468 kts 167°
2026-04-28 08:15 0.09882 106.99449 29812 ft 467 kts 167°
2026-04-28 08:16 0.03503 107.00720 29814 ft 467 kts 167°
2026-04-28 08:16 -0.02876 107.01993 29805 ft 468 kts 167°
2026-04-28 08:17 -0.09216 107.03263 29799 ft 468 kts 167°
2026-04-28 08:17 -0.15605 107.04536 29803 ft 468 kts 168°
2026-04-28 08:18 -0.21998 107.05812 29807 ft 468 kts 168°
2026-04-28 08:18 -0.28390 107.07084 29807 ft 469 kts 168°
2026-04-28 08:19 -0.34782 107.08369 29809 ft 469 kts 167°
2026-04-28 08:19 -0.41105 107.09750 29809 ft 468 kts 165°
2026-04-28 08:20 -0.47367 107.11528 29805 ft 468 kts 162°
2026-04-28 08:20 -0.53597 107.13410 29806 ft 468 kts 162°
2026-04-28 08:21 -0.59809 107.15217 29802 ft 468 kts 163°
2026-04-28 08:21 -0.66075 107.16976 29801 ft 468 kts 163°
2026-04-28 08:22 -0.72344 107.18730 29802 ft 468 kts 163°
2026-04-28 08:22 -0.78610 107.20495 29800 ft 468 kts 163°
2026-04-28 08:23 -0.84874 107.22269 29799 ft 468 kts 163°
2026-04-28 08:23 -0.91100 107.24029 29799 ft 468 kts 163°
2026-04-28 08:24 -0.97370 107.25800 29802 ft 468 kts 163°
2026-04-28 08:24 -1.03640 107.27574 29800 ft 468 kts 163°
2026-04-28 08:25 -1.09908 107.29348 29795 ft 468 kts 163°
2026-04-28 08:26 -1.19266 107.31994 29802 ft 468 kts 163°
2026-04-28 08:26 -1.25530 107.33765 29805 ft 468 kts 163°
2026-04-28 08:27 -1.31794 107.35537 29804 ft 468 kts 163°
2026-04-28 08:27 -1.38059 107.37308 29803 ft 468 kts 163°
2026-04-28 08:28 -1.44278 107.39060 29801 ft 467 kts 163°
2026-04-28 08:28 -1.50535 107.40827 29810 ft 467 kts 162°
2026-04-28 08:29 -1.56773 107.42600 29815 ft 465 kts 162°
2026-04-28 08:29 -1.62998 107.44365 29813 ft 465 kts 162°
2026-04-28 08:30 -1.69171 107.46107 29810 ft 464 kts 162°
2026-04-28 08:30 -1.75384 107.47854 29805 ft 464 kts 162°
2026-04-28 08:31 -1.81596 107.49608 29805 ft 463 kts 162°
2026-04-28 08:31 -1.87803 107.51366 29796 ft 464 kts 162°
2026-04-28 08:32 -1.93978 107.53118 29791 ft 465 kts 162°
2026-04-28 08:32 -2.00201 107.54876 29791 ft 465 kts 162°
2026-04-28 08:33 -2.06431 107.56634 29797 ft 465 kts 162°
2026-04-28 08:33 -2.12665 107.58399 29798 ft 465 kts 162°
2026-04-28 08:34 -2.18852 107.60163 29792 ft 466 kts 162°
2026-04-28 08:34 -2.25088 107.61935 29791 ft 466 kts 162°
2026-04-28 08:35 -2.31332 107.63700 29796 ft 467 kts 162°
2026-04-28 08:35 -2.37590 107.65461 29798 ft 467 kts 162°
2026-04-28 08:36 -2.43846 107.67226 29800 ft 467 kts 162°
2026-04-28 08:36 -2.50053 107.68985 29803 ft 467 kts 162°
2026-04-28 08:37 -2.56317 107.70758 29796 ft 468 kts 162°
2026-04-28 08:37 -2.62583 107.72530 29792 ft 469 kts 162°
2026-04-28 08:38 -2.68864 107.74310 29794 ft 469 kts 162°
2026-04-28 08:38 -2.75105 107.76080 29800 ft 470 kts 162°
2026-04-28 08:39 -2.81374 107.77911 29808 ft 469 kts 162°
2026-04-28 08:39 -2.87635 107.79768 29810 ft 469 kts 162°
2026-04-28 08:40 -2.93898 107.81622 29804 ft 469 kts 162°
2026-04-28 08:40 -3.00132 107.83444 29800 ft 470 kts 162°
2026-04-28 08:41 -3.06421 107.85279 29795 ft 471 kts 162°
2026-04-28 08:41 -3.12708 107.87129 29800 ft 471 kts 162°
2026-04-28 08:42 -3.19000 107.88974 29806 ft 471 kts 162°
2026-04-28 08:42 -3.25249 107.90806 29808 ft 471 kts 162°
2026-04-28 08:43 -3.31547 107.92652 29808 ft 471 kts 162°
2026-04-28 08:43 -3.37842 107.94504 29811 ft 471 kts 162°
2026-04-28 08:44 -3.44140 107.96346 29815 ft 472 kts 162°
2026-04-28 08:44 -3.50441 107.98187 29819 ft 472 kts 162°
2026-04-28 08:45 -3.56702 108.00023 29820 ft 472 kts 162°
2026-04-28 08:45 -3.63012 108.01871 29817 ft 472 kts 162°
2026-04-28 08:46 -3.69312 108.03726 29817 ft 472 kts 162°
2026-04-28 08:46 -3.75609 108.05584 29815 ft 471 kts 162°
2026-04-28 08:47 -3.81862 108.07419 29816 ft 471 kts 162°
2026-04-28 08:47 -3.88158 108.09261 29819 ft 472 kts 162°
2026-04-28 08:48 -3.94460 108.11106 29816 ft 472 kts 162°
2026-04-28 08:48 -4.00753 108.12966 29815 ft 472 kts 162°
2026-04-28 08:49 -4.07023 108.14784 29812 ft 473 kts 166°
2026-04-28 08:49 -4.13565 108.15161 29810 ft 476 kts 186°
2026-04-28 08:49 -4.16806 108.14475 29807 ft 477 kts 197°
2026-04-28 08:50 -4.19886 108.13228 29809 ft 478 kts 206°
2026-04-28 08:50 -4.25787 108.10125 29812 ft 479 kts 207°
2026-04-28 08:51 -4.31688 108.07013 29813 ft 479 kts 207°
2026-04-28 08:51 -4.37558 108.03930 29812 ft 480 kts 207°
2026-04-28 08:52 -4.43471 108.00822 29806 ft 479 kts 207°
2026-04-28 08:52 -4.46399 107.99280 29591 ft 471 kts 207°
2026-04-28 08:52 -4.49274 107.97762 29188 ft 463 kts 207°
2026-04-28 08:52 -4.52101 107.96272 28794 ft 455 kts 207°
2026-04-28 08:53 -4.54877 107.94808 28423 ft 448 kts 207°
2026-04-28 08:53 -4.57610 107.93369 28046 ft 440 kts 206°
2026-04-28 08:53 -4.60266 107.91969 27676 ft 434 kts 206°
2026-04-28 08:53 -4.62913 107.90575 27307 ft 427 kts 206°
2026-04-28 08:54 -4.65525 107.89202 26945 ft 420 kts 206°
2026-04-28 08:54 -4.68099 107.87849 26581 ft 414 kts 206°
2026-04-28 08:54 -4.70629 107.86520 26228 ft 408 kts 206°
2026-04-28 08:54 -4.73131 107.85203 25876 ft 404 kts 206°
2026-04-28 08:55 -4.75605 107.83901 25538 ft 399 kts 206°
2026-04-28 08:55 -4.78043 107.82616 25188 ft 393 kts 206°
2026-04-28 08:55 -4.80446 107.81351 24889 ft 386 kts 206°
2026-04-28 08:55 -4.82756 107.80134 24802 ft 373 kts 206°
2026-04-28 08:56 -4.84994 107.78955 24814 ft 357 kts 206°
2026-04-28 08:56 -4.87143 107.77826 24815 ft 342 kts 206°
2026-04-28 08:56 -4.89203 107.76745 24815 ft 326 kts 206°
2026-04-28 08:56 -4.91164 107.75712 24815 ft 310 kts 206°
2026-04-28 08:57 -4.93021 107.74729 24799 ft 294 kts 206°
2026-04-28 08:57 -4.94806 107.73777 24504 ft 290 kts 207°
2026-04-28 08:57 -4.96603 107.72824 24071 ft 291 kts 205°
2026-04-28 08:57 -4.98386 107.71909 23791 ft 288 kts 206°
2026-04-28 08:58 -5.00190 107.70963 23644 ft 303 kts 206°
2026-04-28 08:58 -5.02067 107.70010 23990 ft 299 kts 205°
2026-04-28 08:58 -5.03895 107.69105 24499 ft 288 kts 205°
2026-04-28 08:58 -5.05698 107.68234 24742 ft 290 kts 204°
2026-04-28 08:59 -5.07552 107.67321 24704 ft 303 kts 206°
2026-04-28 08:59 -5.09430 107.66317 24856 ft 306 kts 208°
2026-04-28 08:59 -5.11250 107.65260 25330 ft 298 kts 210°
2026-04-28 08:59 -5.13075 107.64193 25330 ft 309 kts 208°
2026-04-28 09:00 -5.14902 107.63092 25483 ft 313 kts 215°
2026-04-28 09:00 -5.16565 107.61706 25867 ft 308 kts 224°
2026-04-28 09:00 -5.18008 107.60132 26156 ft 308 kts 230°
2026-04-28 09:00 -5.19367 107.58418 25960 ft 326 kts 230°
2026-04-28 09:01 -5.20879 107.56566 25339 ft 359 kts 230°
2026-04-28 09:01 -5.22540 107.54560 24862 ft 387 kts 229°
2026-04-28 09:01 -5.24275 107.52430 24510 ft 396 kts 230°
2026-04-28 09:01 -5.25988 107.50289 24155 ft 391 kts 230°
2026-04-28 09:02 -5.27651 107.48198 23834 ft 386 kts 230°
2026-04-28 09:02 -5.31148 107.43823 23104 ft 377 kts 230°
2026-04-28 09:02 -5.32800 107.41777 22712 ft 376 kts 230°
2026-04-28 09:03 -5.34448 107.39740 22342 ft 377 kts 230°
2026-04-28 09:03 -5.36078 107.37729 21978 ft 377 kts 229°
2026-04-28 09:03 -5.37734 107.35688 21590 ft 376 kts 230°
2026-04-28 09:03 -5.39379 107.33657 21170 ft 373 kts 230°
2026-04-28 09:04 -5.41001 107.31646 20804 ft 369 kts 230°
2026-04-28 09:04 -5.42614 107.29645 20452 ft 368 kts 230°
2026-04-28 09:04 -5.44221 107.27648 20107 ft 368 kts 230°
2026-04-28 09:04 -5.45835 107.25643 19761 ft 369 kts 230°
2026-04-28 09:05 -5.47449 107.23641 19423 ft 370 kts 230°
2026-04-28 09:05 -5.49068 107.21637 19086 ft 370 kts 230°
2026-04-28 09:05 -5.50670 107.19653 18757 ft 371 kts 230°
2026-04-28 09:05 -5.52299 107.17635 18421 ft 372 kts 230°
2026-04-28 09:06 -5.53930 107.15617 18090 ft 373 kts 230°
2026-04-28 09:06 -5.55568 107.13592 17708 ft 372 kts 230°
2026-04-28 09:06 -5.57182 107.11591 17329 ft 367 kts 230°
2026-04-28 09:06 -5.58779 107.09611 16957 ft 362 kts 230°
2026-04-28 09:07 -5.60358 107.07655 16581 ft 359 kts 230°
2026-04-28 09:07 -5.61923 107.05715 16198 ft 357 kts 230°
2026-04-28 09:07 -5.63489 107.03777 15852 ft 357 kts 230°
2026-04-28 09:07 -5.65033 107.01865 15503 ft 358 kts 230°
2026-04-28 09:08 -5.66601 106.99923 15156 ft 358 kts 230°
2026-04-28 09:08 -5.68169 106.97980 14808 ft 359 kts 230°
2026-04-28 09:08 -5.69741 106.96031 14464 ft 359 kts 230°
2026-04-28 09:08 -5.71311 106.94083 14124 ft 359 kts 230°
2026-04-28 09:09 -5.72885 106.92128 13779 ft 360 kts 230°
2026-04-28 09:09 -5.74459 106.90171 13418 ft 360 kts 230°
2026-04-28 09:09 -5.76035 106.88212 13040 ft 361 kts 231°
2026-04-28 09:09 -5.77615 106.86252 12677 ft 362 kts 230°
2026-04-28 09:10 -5.79179 106.84312 12300 ft 362 kts 230°
2026-04-28 09:10 -5.80763 106.82347 11952 ft 362 kts 230°
2026-04-28 09:10 -5.82344 106.80382 11751 ft 359 kts 230°
2026-04-28 09:10 -5.83891 106.78460 11559 ft 348 kts 230°
2026-04-28 09:11 -5.85389 106.76601 11386 ft 338 kts 230°
2026-04-28 09:11 -5.86716 106.74699 11213 ft 328 kts 240°
2026-04-28 09:11 -5.87627 106.72620 11054 ft 324 kts 248°
2026-04-28 09:11 -5.88459 106.70519 10911 ft 323 kts 248°
2026-04-28 09:12 -5.89281 106.68455 10770 ft 322 kts 247°
2026-04-28 09:12 -5.90116 106.66373 10636 ft 322 kts 248°
2026-04-28 09:12 -5.90954 106.64290 10445 ft 321 kts 247°
2026-04-28 09:12 -5.91788 106.62211 10245 ft 319 kts 248°
2026-04-28 09:13 -5.92605 106.60169 10037 ft 311 kts 248°
2026-04-28 09:13 -5.93403 106.58177 9832 ft 303 kts 248°
2026-04-28 09:13 -5.94187 106.56239 9625 ft 296 kts 247°
2026-04-28 09:13 -5.94961 106.54345 9401 ft 289 kts 247°
2026-04-28 09:14 -5.95715 106.52499 9164 ft 283 kts 247°
2026-04-28 09:14 -5.96456 106.50682 8921 ft 279 kts 247°
2026-04-28 09:14 -5.97179 106.48910 8737 ft 276 kts 247°
2026-04-28 09:14 -5.97906 106.47128 8623 ft 273 kts 247°
2026-04-28 09:15 -5.98387 106.45950 8491 ft 268 kts 247°
2026-04-28 09:15 -5.99318 106.43670 8209 ft 265 kts 247°
2026-04-28 09:15 -6.00015 106.41963 8000 ft 264 kts 247°
2026-04-28 09:15 -6.00707 106.40264 7792 ft 262 kts 247°
2026-04-28 09:16 -6.01394 106.38574 7580 ft 261 kts 247°
2026-04-28 09:16 -6.01849 106.37455 7436 ft 261 kts 247°
2026-04-28 09:16 -6.02754 106.35228 7279 ft 251 kts 247°
2026-04-28 09:16 -6.03190 106.34156 7234 ft 250 kts 245°
2026-04-28 09:17 -6.04561 106.32406 7066 ft 238 kts 211°
2026-04-28 09:17 -6.06079 106.31819 6908 ft 233 kts 186°
2026-04-28 09:17 -6.07668 106.31916 6645 ft 229 kts 167°
2026-04-28 09:17 -6.09231 106.32197 6407 ft 228 kts 167°
2026-04-28 09:18 -6.10793 106.32474 6170 ft 227 kts 168°
2026-04-28 09:18 -6.12348 106.32748 5933 ft 227 kts 168°
2026-04-28 09:18 -6.13901 106.33021 5703 ft 226 kts 167°
2026-04-28 09:18 -6.14925 106.33202 5553 ft 225 kts 168°
2026-04-28 09:19 -6.16419 106.33466 5327 ft 211 kts 167°
2026-04-28 09:19 -6.17815 106.33711 5193 ft 195 kts 167°
2026-04-28 09:19 -6.19117 106.33948 5120 ft 187 kts 165°
2026-04-28 09:19 -6.20296 106.34458 5048 ft 184 kts 144°
2026-04-28 09:20 -6.21436 106.35670 4865 ft 179 kts 120°
2026-04-28 09:20 -6.21867 106.36375 4761 ft 178 kts 121°
2026-04-28 09:20 -6.22748 106.37792 4562 ft 179 kts 121°
2026-04-28 09:20 -6.23188 106.38498 4440 ft 180 kts 121°
2026-04-28 09:21 -6.23616 106.39666 4311 ft 179 kts 99°
2026-04-28 09:21 -6.23570 106.40879 4158 ft 172 kts 77°
2026-04-28 09:21 -6.23162 106.41991 4026 ft 168 kts 69°
2026-04-28 09:21 -6.22728 106.43084 3896 ft 167 kts 69°
2026-04-28 09:22 -6.22297 106.44171 3763 ft 168 kts 69°
2026-04-28 09:22 -6.21861 106.45265 3651 ft 168 kts 69°
2026-04-28 09:22 -6.21428 106.46354 3550 ft 167 kts 69°
2026-04-28 09:22 -6.20999 106.47430 3376 ft 164 kts 69°
2026-04-28 09:23 -6.20581 106.48481 3186 ft 164 kts 69°
2026-04-28 09:23 -6.20166 106.49524 2970 ft 157 kts 69°
2026-04-28 09:23 -6.19767 106.50527 2775 ft 152 kts 68°
2026-04-28 09:23 -6.19373 106.51515 2580 ft 151 kts 69°
2026-04-28 09:24 -6.18987 106.52486 2387 ft 151 kts 69°
2026-04-28 09:24 -6.18598 106.53463 2195 ft 150 kts 69°
2026-04-28 09:24 -6.18210 106.54437 2006 ft 149 kts 68°
2026-04-28 09:24 -6.17826 106.55401 1810 ft 149 kts 66°
2026-04-28 09:25 -6.17452 106.56339 1614 ft 147 kts 68°
2026-04-28 09:25 -6.17195 106.56986 1505 ft 148 kts 67°
2026-04-28 09:25 -6.16689 106.58256 1242 ft 147 kts 66°
2026-04-28 09:25 -6.16306 106.59217 1045 ft 149 kts 67°
2026-04-28 09:26 -6.15924 106.60175 868 ft 146 kts 68°
2026-04-28 09:26 -6.15546 106.61124 698 ft 146 kts 66°
2026-04-28 09:26 -6.15171 106.62067 543 ft 145 kts 65°
2026-04-28 09:26 -6.14793 106.63015 362 ft 146 kts 66°
2026-04-28 09:27 -6.14044 106.64889 32 ft 139 kts 67°
2026-04-28 09:27 -6.13752 106.65605 27 ft 84 kts 68°
2026-04-28 09:27 -6.13590 106.66009 28 ft 32 kts 69°
2026-04-28 09:28 -6.13530 106.66149 27 ft 16 kts 59°
2026-04-28 09:28 -6.13464 106.66214 27 ft 12 kts 39°
2026-04-28 09:28 -6.13400 106.66267 27 ft 11 kts 39°
2026-04-28 09:28 -6.13364 106.66290 27 ft 0 kts 23°
2026-04-28 09:29 -6.13358 106.66292 27 ft 4 kts 18°
2026-04-28 09:29 -6.13331 106.66295 27 ft 3 kts 360°
2026-04-28 09:29 -6.13307 106.66296 27 ft 6 kts
2026-04-28 09:29 -6.13254 106.66364 26 ft 16 kts 69°
2026-04-28 09:30 -6.13215 106.66463 27 ft 15 kts 68°
2026-04-28 09:30 -6.13178 106.66554 30 ft 14 kts 68°
2026-04-28 09:30 -6.13138 106.66652 28 ft 19 kts 68°
2026-04-28 09:30 -6.13086 106.66784 25 ft 20 kts 68°
2026-04-28 09:31 -6.13034 106.66911 26 ft 19 kts 68°
2026-04-28 09:31 -6.12986 106.67031 24 ft 18 kts 68°
2026-04-28 09:31 -6.12942 106.67142 23 ft 17 kts 69°
2026-04-28 09:31 -6.12901 106.67248 23 ft 16 kts 68°
2026-04-28 09:32 -6.12863 106.67348 24 ft 15 kts 70°
2026-04-28 09:32 -6.12827 106.67438 23 ft 13 kts 63°
2026-04-28 09:32 -6.12783 106.67514 24 ft 12 kts 59°
2026-04-28 09:32 -6.12742 106.67582 24 ft 11 kts 59°
2026-04-28 09:33 -6.12707 106.67642 22 ft 9 kts 59°
2026-04-28 09:33 -6.12676 106.67694 22 ft 8 kts 59°
2026-04-28 09:33 -6.12631 106.67757 22 ft 20 kts 48°
2026-04-28 09:33 -6.12500 106.67841 22 ft 21 kts 18°
2026-04-28 09:34 -6.12380 106.67853 22 ft 15 kts 356°
2026-04-28 09:34 -6.12281 106.67830 22 ft 15 kts 339°
2026-04-28 09:34 -6.12178 106.67791 24 ft 15 kts 338°
2026-04-28 09:34 -6.12084 106.67754 22 ft 14 kts 339°
2026-04-28 09:35 -6.12000 106.67720 22 ft 12 kts 338°
2026-04-28 09:35 -6.11925 106.67690 22 ft 11 kts 338°
2026-04-28 09:35 -6.11839 106.67655 22 ft 15 kts 338°
2026-04-28 09:35 -6.11747 106.67618 24 ft 13 kts 339°
2026-04-28 09:36 -6.11665 106.67586 24 ft 12 kts 339°
2026-04-28 09:36 -6.11580 106.67553 22 ft 16 kts 338°
2026-04-28 09:36 -6.11476 106.67513 22 ft 15 kts 340°
2026-04-28 09:36 -6.11380 106.67477 22 ft 14 kts 338°
2026-04-28 09:37 -6.11292 106.67441 25 ft 13 kts 337°
2026-04-28 09:37 -6.11213 106.67407 22 ft 12 kts 336°
2026-04-28 09:37 -6.11143 106.67377 22 ft 10 kts 338°
2026-04-28 09:37 -6.11093 106.67338 22 ft 8 kts 302°
2026-04-28 09:38 -6.11079 106.67289 22 ft 6 kts 272°
2026-04-28 09:38 -6.11086 106.67238 22 ft 10 kts 258°
2026-04-28 09:38 -6.11106 106.67153 22 ft 13 kts 256°
2026-04-28 09:38 -6.11125 106.67072 25 ft 11 kts 257°
2026-04-28 09:39 -6.11141 106.67006 23 ft 9 kts 255°
2026-04-28 09:39 -6.11169 106.66930 24 ft 17 kts 247°
2026-04-28 09:39 -6.11215 106.66816 25 ft 17 kts 248°
2026-04-28 09:39 -6.11255 106.66714 25 ft 15 kts 248°
2026-04-28 09:40 -6.11290 106.66627 24 ft 13 kts 248°
2026-04-28 09:40 -6.11321 106.66550 24 ft 11 kts 248°
2026-04-28 09:40 -6.11351 106.66474 25 ft 17 kts 248°
2026-04-28 09:40 -6.11397 106.66361 28 ft 11 kts 248°
2026-04-28 09:41 -6.11447 106.66330 27 ft 8 kts 172°
2026-04-28 09:41 -6.11504 106.66351 26 ft 9 kts 156°
2026-04-28 09:41 -6.11554 106.66372 27 ft 7 kts 157°
2026-04-28 09:41 -6.11616 106.66398 27 ft 14 kts 158°
2026-04-28 09:42 -6.11684 106.66386 29 ft 9 kts 213°
2026-04-28 09:42 -6.11728 106.66361 27 ft 6 kts 185°
2026-04-28 09:42 -6.11760 106.66371 43 ft 4 kts 159°
2026-04-28 09:42 -6.11779 106.66378 25 ft 2 kts 158°
2026-04-28 09:43 -6.11788 106.66382 27 ft 2 kts 158°
2026-04-28 09:43 -6.11793 106.66384 26 ft 0 kts 158°